Regional Weather Roundup
Issued by NWS

Home | Current Version | Previous Version | Text Only | Print | Product List | Glossary On
Versions: 1 2 3 4 5 6 7 8 9 10 11 12 13 14 15 16 17 18 19 20 21 22 23 24 25 26 27
000
ASPQ40 PGUM 222210
RWRPQ
WEATHER ROUNDUP FOR THE MARIANAS AND MICRONESIA
NATIONAL WEATHER SERVICE TIYAN GU
800 AM CHST MON APR 23 2018

GUZ001>004-222300-
MARIANA ISLANDS-

CITY           SKY/WX    TMP DP  RH WIND       PRES   REMARKS
GUAM AIRPORT   MOSUNNY   82  77  83 E10       29.87R HX  91
ANDERSEN AFB   CLOUDY    79  75  89 E14       29.87R
ROTA AIRPORT   MOSUNNY   79  73  83 E15       29.87R
TINIAN AP      MOSUNNY   79  73  83 NE16      29.86R
SAIPAN AP      PTSUNNY   81  75  83 E16       29.87R

$$

PMZ161-222300-
REPUBLIC OF PALAU-

CITY           SKY/WX    TMP DP  RH WIND       PRES   REMARKS
KOROR AP       PTSUNNY   79  75  89 CALM      29.79R
KOROR WSO      CLOUDY    81  77  89 NE5       29.79R

$$

PMZ171>174-222300-
FEDERATED STATES OF MICRONESIA-

CITY           SKY/WX    TMP DP  RH WIND       PRES   REMARKS
YAP AIRPORT    PTSUNNY   81  75  83 VRB5      29.80R
CHUUK AP       CLOUDY    84  77  79 VRB5      29.79R HX  94
POHNPEI AP     CLOUDY    82  79  89 S2        29.77  HX  93
POHNPEI WSO    CLOUDY    84  77  79 CALM      29.80R HX  94
KOSRAE AP      CLOUDY    82  77  83 E17       29.77  HX  91

$$

PMZ181-222300-
REPUBLIC OF THE MARSHALL ISLANDS-

CITY           SKY/WX    TMP DP  RH WIND       PRES   REMARKS
KWAJALEIN AP   SUNNY     84  75  74 E14       29.81S HX  92
MAJURO AP      MOSUNNY   84  77  79 NE12      29.84R HX  94
MAJURO WSO     PTSUNNY   84  77  79 E7        29.82S HX  94

$$





USA.gov is the U.S. government's official web portal to all federal, state and local government web resources and services.